Regional Weather Roundup
Issued by NWS

Home | Current Version | Previous Version | Text Only | Print | Product List | Glossary Off
Versions: 1 2 3 4 5 6 7 8 9 10 11 12 13 14 15 16 17 18 19 20 21 22 23 24 25 26 27 28

000
ASUS45 KCYS 281610
RWRWY

WYOMING REGIONAL WEATHER ROUNDUP
NATIONAL WEATHER SERVICE CHEYENNE WY
1000 AM MDT SUN MAY 28 2017

NOTE:  "FAIR" INDICATES FEW OR NO CLOUDS BELOW 12,000 FEET
WITH NO SIGNIFICANT WEATHER AND/OR OBSTRUCTIONS TO VISIBILITY.

WYZ001-281700-
YELLOWSTONE NATIONAL PARK

CITY           SKY/WX    TMP DP  RH WIND       PRES   REMARKS
LK YELLOWSTONE   N/A     43  35  73 CALM      30.43S
W YELLOWSTONE  NOT AVBL

$$
WYZ002>013-054>058-071-098>099-281700-
NORTHERN WYOMING

CITY           SKY/WX    TMP DP  RH WIND       PRES   REMARKS
JACKSON        MOSUNNY   50  36  57 CALM      30.39F
CODY           FAIR      66  34  30 W7        30.27S
GREYBULL       PTSUNNY   61  38  42 VRB3      30.25R
WORLAND        FAIR      62  39  42 VRB3      30.24S
SHERIDAN       PTSUNNY   67  44  43 NW26G35   30.20R
BUFFALO        FAIR      65  39  38 N21G31    30.23R
GILLETTE       FAIR      64  43  46 NW12G21   30.18S
HULETT         FAIR      63  41  45 W9        30.17S
NEWCASTLE      FAIR      61  37  41 NW17G26   30.19S

$$
WYZ014>020-022>026-101>103-281700-
CENTRAL WYOMING

CITY           SKY/WX    TMP DP  RH WIND       PRES   REMARKS
BIG PINEY      FAIR      54  33  45 VRB7      30.38F
PINEDALE       FAIR      54  28  37 S3        30.39S
DUBOIS         FAIR      55  30  38 N8        30.35F
LANDER         FAIR      60  33  36 CALM      30.29F
RIVERTON       FAIR      60  35  39 N10       30.30S
CASPER         PTSUNNY   59  39  47 SW9       30.27S
DOUGLAS        CLOUDY    61  41  47 W12       30.25R

$$
WYZ021-027>030-104>119-281700-
SOUTHERN WYOMING

CITY           SKY/WX    TMP DP  RH WIND       PRES   REMARKS
EVANSTON       FAIR      55  33  43 E5        30.37S
KEMMERER         N/A     54  30  40 CALM      30.39F
FORT BRIDGER   FAIR      56  32  41 NE3       30.41S
ROCK SPRINGS   FAIR      54  32  43 CALM      30.37S
DIXON            N/A     51  31  45 W3        30.40S
RAWLINS        FAIR      56  29  35 W12       30.36R
SARATOGA       FAIR      54  32  43 CALM      30.38R
LARAMIE        FAIR      55  31  39 N6        30.33S
CHEYENNE       FAIR      59  29  31 N20G28    30.28S
TORRINGTON     FAIR      66  40  38 NW14      30.18F
PINE BLUFFS    FAIR      63  32  31 NW14G22   30.25S

$$




USA.gov is the U.S. government's official web portal to all federal, state and local government web resources and services.